Weather in Novodonetskaya

Russia / Krasnodar Krai     45°41′58″N   39°46′56″E
temp.,
°C
wind,
m/s
gust,
m/s
humid.,
%
clouds,
%
prec.,
mm/h
press.,
hPa
HPBL,
m
7 may, fri
fri700:00+13w338810 0.2 101237
03:00+10w35715 0.3 101370
06:00+9wsw3677100 0.0 1015109
09:00+16wsw5761100 0.0 1016472
12:00+19wsw67571 0.0 10171342
15:00+20w56535 0.0 10171616
18:00+19wnw346741 0.0 1017195
21:00+13nne128113 0.0 101810
8 may, sat
sat800:00+12ese33855 0.0 101733
03:00+11sse338425 0.0 101639
06:00+11se358993 0.0 1016100
09:00+17se4571100 0.0 1015383
12:00+22sse3357100 0.0 10141072
15:00+23s2350100 0.0 10121481
18:00+22s1165100 0.0 101121
21:00+17se1168100 0.0 101111
9 may, sun
sun900:00+15ese227580 0.0 100912
03:00+14w1189100 0.6 100912
06:00+12nne4498100 5.9 1009106
09:00+13ssw5996100 9.9 1009565
12:00+8nw91493100 0.4 1012756
15:00+7nw71092100 0.9 10181085
18:00+8w4996100 1.6 1020674
21:00+8nw6138588 2.2 1023959
10 may, mon
mon1000:00+7w51191100 0.0 1022280
03:00+7sw4694100 0.5 1023182
06:00+7w2693100 0.3 1022259
09:00+9nw6978100 0.9 10211150
12:00+7wnw7988100 1.0 10211009
15:00+7w5892100 1.5 1020919
18:00+6wsw5894100 0.3 1019888
21:00+8w71297100 10.6 1018680
11 may, tue
tue1100:00+7ssw61296100 1.2 1018648
03:00+7ssw71294100 1.8 1017708
06:00+7s71493100 1.3 1018809
09:00+7sse61391100 1.9 10201168
12:00+9ese3691100 0.8 1020297
15:00+10n2287100 1.1 1020286
18:00+9nnw3495100 0.9 1020171
21:00+8nnw3497100 2.3 1020123